Location: Unspecified
(48.8656°N, 0.0000°E)
Time: 14:08:33
(UTC+00:00)

SR - Pass Details

Date: 25 June 2019
Orbit: 578 x 878 km, 66.7° (Epoch: 16 August)

Event Time Altitude Azimuth Distance (km) Brightness Sun altitude
Rises 04:03:17 0° 236° (SW) 2,786 - -0.1°
Exits shadow 04:03:22 - 236° (SW) 2,756 ? -0.1°
Reaches altitude 10° 04:05:36 10° 244° (WSW) 1,895 ? 0.2°
Maximum altitude 04:09:34 39° 315° (NW) 893 ? 0.8°
Drops below altitude 10° 04:13:43 10° 25° (NNE) 1,977 ? 1.3°
Sets 04:16:11 0° 33° (NNE) 2,924 ? 1.6°
